Lake Tahoe Weather Center

Moon Phase Calendar



Lake Tahoe Water Level
Online Cameras

 


      

Current Conditions in Tahoma
6/29/2022 12:32:50 AM

57°F
Feels Like 54
Clear
Humidity
43%
Pressure
30.3"
Wind
5.7 mph (SW)
Dew Point
34°F
UV Index
0/10 (Low)
Visibility
6 mi

Hourly Forecast

Date & Time Wed, Jun 29
12:00 AM
Wed, Jun 29
1:00 AM
Wed, Jun 29
2:00 AM
Wed, Jun 29
3:00 AM
Wed, Jun 29
4:00 AM
Wed, Jun 29
5:00 AM
Wed, Jun 29
6:00 AM
Wed, Jun 29
7:00 AM
Wed, Jun 29
8:00 AM
Wed, Jun 29
9:00 AM
Wed, Jun 29
10:00 AM
Wed, Jun 29
11:00 AM
Wed, Jun 29
12:00 PM
Wed, Jun 29
1:00 PM
Wed, Jun 29
2:00 PM
Wed, Jun 29
3:00 PM
Wed, Jun 29
4:00 PM
Wed, Jun 29
5:00 PM
Wed, Jun 29
6:00 PM
Wed, Jun 29
7:00 PM
Wed, Jun 29
8:00 PM
Wed, Jun 29
9:00 PM
Wed, Jun 29
10:00 PM
Wed, Jun 29
11:00 PM
Thu, Jun 30
12:00 AM
Thu, Jun 30
1:00 AM
Thu, Jun 30
2:00 AM
Thu, Jun 30
3:00 AM
Thu, Jun 30
4:00 AM
Thu, Jun 30
5:00 AM
Thu, Jun 30
6:00 AM
Thu, Jun 30
7:00 AM
Thu, Jun 30
8:00 AM
Thu, Jun 30
9:00 AM
Thu, Jun 30
10:00 AM
Thu, Jun 30
11:00 AM
Thu, Jun 30
12:00 PM
Thu, Jun 30
1:00 PM
Thu, Jun 30
2:00 PM
Thu, Jun 30
3:00 PM
Thu, Jun 30
4:00 PM
Thu, Jun 30
5:00 PM
Thu, Jun 30
6:00 PM
Thu, Jun 30
7:00 PM
Thu, Jun 30
8:00 PM
Thu, Jun 30
9:00 PM
Thu, Jun 30
10:00 PM
Thu, Jun 30
11:00 PM
Condition
Clear

Clear

Clear

Clear

Clear

Clear

Clear

Clear

Clear

Clear

Clear

Clear

Clear

Clear

Clear

Clear

Clear

Clear

Clear

Clear

Clear

Clear

Clear

Clear

Clear

Clear

Clear

Clear

Clear

Clear

Clear

Clear

Clear

Clear

Clear

Clear

Clear

Clear

Clear

Clear

Clear

Clear

Clear

Clear

Clear

Clear

Clear

Clear
Temperature 56°F57°F56°F55°F54°F53°F52°F56°F62°F65°F67°F69°F70°F71°F71°F71°F70°F69°F67°F64°F59°F54°F52°F51°F51°F51°F51°F51°F51°F50°F50°F55°F60°F64°F67°F68°F69°F70°F70°F70°F69°F68°F66°F63°F57°F53°F51°F49°F
Feels Like 53°F54°F53°F52°F51°F50°F49°F53°F59°F63°F65°F67°F68°F69°F69°F69°F68°F66°F64°F62°F56°F51°F49°F48°F48°F48°F47°F47°F47°F47°F47°F52°F57°F61°F64°F65°F67°F68°F68°F67°F66°F65°F63°F60°F54°F49°F47°F47°F
Cloudiness 6%6%6%6%7%6%0%0%0%0%0%0%0%0%0%0%0%0%0%0%0%0%0%0%0%0%0%0%0%0%0%0%0%0%0%0%0%0%0%0%0%0%0%0%0%0%0%0%
Visibility 6 mi6 mi6 mi6 mi6 mi6 mi6 mi6 mi6 mi6 mi6 mi6 mi6 mi6 mi6 mi6 mi6 mi6 mi6 mi6 mi6 mi6 mi6 mi6 mi6 mi6 mi6 mi6 mi6 mi6 mi6 mi6 mi6 mi6 mi6 mi6 mi6 mi6 mi6 mi6 mi6 mi6 mi6 mi6 mi6 mi6 mi6 mi6 mi
Precipitation 0%0%0%0%0%0%0%0%0%0%0%0%0%0%0%0%0%0%0%0%0%0%0%0%0%0%0%0%0%0%0%0%0%0%0%0%0%0%0%0%0%0%0%0%0%0%0%0%
Humidity 45%43%45%45%46%47%47%43%35%31%30%28%27%25%25%24%24%25%26%29%35%41%43%44%43%43%43%43%43%44%44%41%33%27%22%21%19%18%17%17%19%20%22%25%34%39%42%43%
Dew Point 35°F34°F35°F34°F34°F33°F31°F32°F32°F32°F33°F33°F32°F32°F32°F31°F30°F29°F29°F30°F30°F29°F29°F28°F28°F27°F27°F27°F28°F28°F28°F30°F29°F27°F25°F24°F23°F22°F21°F22°F23°F24°F24°F25°F28°F27°F27°F26°F
Pressure 30.27"30.3"30.27"30.24"30.18"30.15"30.12"30.12"30.06"30.06"30.03"30.03"30.03"30"30"30"30"30"30"30"30.03"30.09"30.12"30.12"30.12"30.12"30.09"30.09"30.09"30.09"30.09"30.09"30.03"30.03"30"30"30"29.97"29.97"29.97"29.97"29.97"29.97"30"30.03"30.06"30.09"30.12"
Wind Speed 5.6 mph5.7 mph5.7 mph5.9 mph6.1 mph6.3 mph6.3 mph5.7 mph7.7 mph12.6 mph15.6 mph17.6 mph18.6 mph19.4 mph19.9 mph19.6 mph19.3 mph19.2 mph18.4 mph14.9 mph8.5 mph6.1 mph5.8 mph5.6 mph4.8 mph4.5 mph4.1 mph4.6 mph5 mph5.4 mph5.7 mph5.1 mph6 mph7.9 mph11.4 mph14.3 mph15.1 mph16.5 mph17.4 mph17.3 mph17.2 mph16.9 mph15.3 mph12.3 mph6.6 mph6.5 mph6.5 mph6 mph
Wind
Direction
210°
SSW
214°
SW
213°
SSW
215°
SW
218°
SW
216°
SW
218°
SW
216°
SW
218°
SW
224°
SW
230°
SW
230°
SW
233°
SW
235°
SW
238°
WSW
240°
WSW
241°
WSW
242°
WSW
242°
WSW
244°
WSW
247°
WSW
247°
WSW
235°
SW
230°
SW
229°
SW
224°
SW
214°
SW
210°
SSW
214°
SW
213°
SSW
212°
SSW
215°
SW
210°
SSW
212°
SSW
221°
SW
231°
SW
235°
SW
239°
WSW
241°
WSW
241°
WSW
242°
WSW
242°
WSW
242°
WSW
243°
WSW
251°
WSW
246°
WSW
241°
WSW
240°
WSW

Daily Forecast

Date High Low Precip. Humidity
Today
Jun 29

Clear
71 °F
51 °F
0%
25%
Thursday
Jun 30

Clear
70 °F
49 °F
0%
18%
Friday
Jul 1

Clear
70 °F
47 °F
0%
17%
Saturday
Jul 2

Clear
67 °F
47 °F
0%
18%
Sunday
Jul 3

Clouds
63 °F
45 °F
0%
26%
Monday
Jul 4

Clear
65 °F
44 °F
0%
36%
Tuesday
Jul 5

Clear
71 °F
46 °F
0%
32%
Wednesday
Jul 6

Clear
75 °F
51 °F
0%
26%
Thursday
Jul 7

Clear
79 °F
54 °F
0%
20%
Friday
Jul 8

Clear
79 °F
56 °F
0%
18%
Saturday
Jul 9

Clear
76 °F
54 °F
0%
15%
Sunday
Jul 10

Clear
78 °F
51 °F
0%
14%
Monday
Jul 11

Clear
76 °F
51 °F
0%
13%
Tuesday
Jul 12

Clear
78 °F
51 °F
0%
13%
Wednesday
Jul 13

Clear
78 °F
53 °F
0%
15%
Thursday
Jul 14

Clear
79 °F
54 °F
0%
15%

Temperature 8-14 Day Outlook



Precipitation 8-14 Day Outlook




Quick Links
Lake Tahoe News
Lake Tahoe Photos
Lake Tahoe Videos




About Us
Contact Us
Site Map
Search Site
Advertise With Us
   
Tahoe.USLakes.info
THE LAKE TAHOE WEBSITE

Copyright 2022, Lakes Online
Privacy    |    Legal